Time,TemperatureF,DewpointF,PressureIn,WindDirection,WindDirectionDegrees,WindSpeedMPH,WindSpeedGustMPH,Humidity,HourlyPrecipIn,Conditions,Clouds,dailyrainin,SoftwareType,DateUTC
2013-07-28 00:02:00,74.0,73.0,29.99,SSE,150,0.0,0.0,97,0.00,,,0.04,,2013-07-28 04:02:00,
2013-07-28 00:12:00,74.0,73.0,29.99,SSE,150,0.0,0.0,97,0.00,,,0.04,,2013-07-28 04:12:00,
2013-07-28 00:22:00,74.0,73.0,29.99,SSE,150,0.0,2.0,97,0.00,,,0.04,,2013-07-28 04:22:00,
2013-07-28 00:32:00,73.0,72.0,29.99,SSE,150,0.0,0.0,98,0.00,,,0.04,,2013-07-28 04:32:00,
2013-07-28 00:43:00,73.0,72.0,29.99,SSE,150,0.0,0.0,98,0.00,,,0.04,,2013-07-28 04:43:00,
2013-07-28 00:53:00,73.0,72.0,29.99,SSE,150,0.0,1.0,98,0.00,,,0.04,,2013-07-28 04:53:00,
2013-07-28 01:02:00,73.0,72.0,29.99,SSE,150,0.0,2.0,98,0.00,,,0.04,,2013-07-28 05:02:00,
2013-07-28 01:12:00,73.0,72.0,29.99,SSE,150,0.0,2.0,98,0.00,,,0.04,,2013-07-28 05:12:00,
2013-07-28 01:22:00,74.0,73.0,29.99,SSE,164,0.0,2.0,98,0.00,,,0.04,,2013-07-28 05:22:00,
2013-07-28 01:32:00,74.0,73.0,29.99,SSE,164,0.0,0.0,98,0.00,,,0.04,,2013-07-28 05:32:00,
2013-07-28 01:43:00,74.0,73.0,29.99,SSE,164,0.0,0.0,98,0.00,,,0.04,,2013-07-28 05:43:00,
2013-07-28 01:53:00,74.0,73.0,29.98,SSE,164,0.0,0.0,98,0.00,,,0.04,,2013-07-28 05:53:00,
2013-07-28 02:02:00,75.0,74.0,29.98,SSE,164,0.0,1.0,98,0.00,,,0.04,,2013-07-28 06:02:00,
2013-07-28 02:12:00,75.0,74.0,29.98,SSE,164,0.0,1.0,98,0.00,,,0.04,,2013-07-28 06:12:00,
2013-07-28 02:22:00,74.0,73.0,29.98,SSE,168,0.0,2.0,98,0.00,,,0.04,,2013-07-28 06:22:00,
2013-07-28 02:32:00,74.0,73.0,29.97,SSE,168,0.0,1.0,98,0.00,,,0.04,,2013-07-28 06:32:00,
2013-07-28 02:43:00,74.0,73.0,29.97,SSE,168,0.0,1.0,98,0.00,,,0.04,,2013-07-28 06:43:00,
2013-07-28 02:53:00,73.0,72.0,29.97,South,188,0.0,2.0,98,0.00,,,0.04,,2013-07-28 06:53:00,
2013-07-28 03:02:00,73.0,72.0,29.96,South,188,0.0,1.0,98,0.00,,,0.04,,2013-07-28 07:02:00,
2013-07-28 03:12:00,73.0,72.0,29.96,South,188,0.0,1.0,98,0.00,,,0.04,,2013-07-28 07:12:00,
2013-07-28 03:23:00,73.0,73.0,29.96,South,188,0.0,0.0,99,0.00,,,0.04,,2013-07-28 07:23:00,
2013-07-28 03:32:00,73.0,73.0,29.96,South,188,0.0,0.0,99,0.00,,,0.04,,2013-07-28 07:32:00,
2013-07-28 03:43:00,73.0,73.0,29.96,South,188,0.0,0.0,99,0.00,,,0.04,,2013-07-28 07:43:00,
2013-07-28 03:53:00,73.0,72.0,29.96,South,188,0.0,0.0,98,0.00,,,0.04,,2013-07-28 07:53:00,
2013-07-28 04:02:00,73.0,73.0,29.95,WSW,245,0.0,3.0,99,0.00,,,0.04,,2013-07-28 08:02:00,
2013-07-28 04:12:00,73.0,73.0,29.95,WSW,245,0.0,3.0,99,0.00,,,0.04,,2013-07-28 08:12:00,
2013-07-28 04:22:00,73.0,73.0,29.95,WSW,245,0.0,1.0,99,0.00,,,0.04,,2013-07-28 08:22:00,
2013-07-28 04:33:00,73.0,73.0,29.95,WSW,245,1.0,3.0,99,0.00,,,0.04,,2013-07-28 08:33:00,
2013-07-28 04:42:00,73.0,73.0,29.95,WSW,245,1.0,3.0,99,0.00,,,0.04,,2013-07-28 08:42:00,
2013-07-28 04:53:00,74.0,74.0,29.95,WSW,248,0.0,3.0,99,0.00,,,0.04,,2013-07-28 08:53:00,
2013-07-28 05:02:00,74.0,74.0,29.95,WSW,248,0.0,1.0,99,0.00,,,0.04,,2013-07-28 09:02:00,
2013-07-28 05:12:00,74.0,74.0,29.95,WSW,248,0.0,1.0,99,0.00,,,0.04,,2013-07-28 09:12:00,
2013-07-28 05:22:00,74.0,74.0,29.95,WSW,248,0.0,1.0,99,0.00,,,0.04,,2013-07-28 09:22:00,
2013-07-28 05:32:00,73.0,73.0,29.96,WSW,248,0.0,0.0,99,0.00,,,0.04,,2013-07-28 09:32:00,
2013-07-28 05:43:00,73.0,73.0,29.96,WSW,248,0.0,0.0,99,0.00,,,0.04,,2013-07-28 09:43:00,
2013-07-28 05:53:00,73.0,73.0,29.96,WSW,248,0.0,0.0,99,0.00,,,0.04,,2013-07-28 09:53:00,
2013-07-28 06:02:00,72.0,72.0,29.96,WSW,248,0.0,0.0,99,0.00,,,0.04,,2013-07-28 10:02:00,
2013-07-28 06:12:00,72.0,72.0,29.96,WSW,248,0.0,0.0,99,0.00,,,0.04,,2013-07-28 10:12:00,
2013-07-28 06:22:00,72.0,72.0,29.97,WSW,248,0.0,0.0,99,0.00,,,0.04,,2013-07-28 10:22:00,
2013-07-28 06:33:00,72.0,72.0,29.97,WSW,248,0.0,0.0,99,0.00,,,0.04,,2013-07-28 10:33:00,
2013-07-28 06:42:00,72.0,72.0,29.97,WSW,248,0.0,0.0,99,0.00,,,0.04,,2013-07-28 10:42:00,
2013-07-28 06:53:00,72.0,72.0,29.97,WSW,248,0.0,0.0,99,0.00,,,0.04,,2013-07-28 10:53:00,
2013-07-28 07:02:00,72.0,72.0,29.97,WSW,248,0.0,0.0,99,0.00,,,0.04,,2013-07-28 11:02:00,
2013-07-28 07:12:00,72.0,72.0,29.98,WSW,248,0.0,0.0,99,0.00,,,0.04,,2013-07-28 11:12:00,
2013-07-28 07:22:00,72.0,72.0,29.98,WSW,248,0.0,0.0,99,0.00,,,0.04,,2013-07-28 11:22:00,
2013-07-28 07:33:00,73.0,73.0,29.99,WSW,248,0.0,0.0,99,0.00,,,0.04,,2013-07-28 11:33:00,
2013-07-28 07:43:00,73.0,73.0,29.99,WSW,248,0.0,0.0,99,0.00,,,0.04,,2013-07-28 11:43:00,
2013-07-28 07:54:00,74.0,74.0,30.00,WSW,248,0.0,0.0,99,0.00,,,0.04,,2013-07-28 11:54:00,
2013-07-28 08:02:00,75.0,75.0,30.00,WSW,248,0.0,0.0,99,0.00,,,0.04,,2013-07-28 12:02:00,
2013-07-28 08:12:00,75.0,75.0,30.00,WSW,248,0.0,0.0,99,0.00,,,0.04,,2013-07-28 12:12:00,
2013-07-28 08:22:00,76.0,76.0,30.01,WSW,246,0.0,2.0,99,0.00,,,0.04,,2013-07-28 12:22:00,
2013-07-28 08:33:00,77.0,77.0,30.01,SW,232,0.0,1.0,99,0.00,,,0.04,,2013-07-28 12:33:00,
2013-07-28 08:43:00,77.0,77.0,30.01,SW,232,0.0,1.0,99,0.00,,,0.04,,2013-07-28 12:43:00,
2013-07-28 08:53:00,78.0,78.0,30.01,SW,232,0.0,2.0,99,0.00,,,0.04,,2013-07-28 12:53:00,
2013-07-28 09:12:00,78.0,78.0,30.01,South,180,0.0,3.0,99,0.00,,,0.04,,2013-07-28 13:12:00,
2013-07-28 09:22:00,79.0,78.0,30.02,SW,215,0.0,3.0,98,0.00,,,0.04,,2013-07-28 13:22:00,
2013-07-28 09:32:00,80.0,78.0,30.01,SSW,211,0.0,4.0,94,0.00,,,0.04,,2013-07-28 13:32:00,
2013-07-28 09:43:00,80.0,78.0,30.01,SSW,211,0.0,4.0,94,0.00,,,0.04,,2013-07-28 13:43:00,
2013-07-28 09:53:00,81.0,78.0,30.01,WSW,252,0.0,4.0,92,0.00,,,0.04,,2013-07-28 13:53:00,
2013-07-28 10:02:00,82.0,79.0,30.01,WNW,286,1.0,4.0,90,0.00,,,0.04,,2013-07-28 14:02:00,
2013-07-28 10:12:00,82.0,79.0,30.01,WNW,286,1.0,4.0,90,0.00,,,0.04,,2013-07-28 14:12:00,
2013-07-28 10:23:00,83.0,78.0,30.02,SE,128,1.0,4.0,86,0.00,,,0.04,,2013-07-28 14:23:00,
2013-07-28 10:33:00,84.0,79.0,30.02,SW,233,0.0,4.0,84,0.00,,,0.04,,2013-07-28 14:33:00,
2013-07-28 10:43:00,84.0,79.0,30.02,SW,233,0.0,4.0,84,0.00,,,0.04,,2013-07-28 14:43:00,
2013-07-28 10:53:00,84.0,78.0,30.03,SW,218,0.0,5.0,81,0.00,,,0.04,,2013-07-28 14:53:00,
2013-07-28 11:03:00,85.0,77.0,30.03,SW,217,0.0,2.0,78,0.00,,,0.04,,2013-07-28 15:03:00,
2013-07-28 11:13:00,85.0,77.0,30.03,SW,217,0.0,2.0,78,0.00,,,0.04,,2013-07-28 15:13:00,
2013-07-28 11:22:00,85.0,77.0,30.03,SSW,202,1.0,4.0,78,0.00,,,0.04,,2013-07-28 15:22:00,
2013-07-28 11:32:00,84.0,77.0,30.03,SW,236,0.0,4.0,80,0.00,,,0.04,,2013-07-28 15:32:00,
2013-07-28 11:43:00,84.0,77.0,30.03,SW,236,0.0,4.0,80,0.00,,,0.04,,2013-07-28 15:43:00,
2013-07-28 11:53:00,85.0,78.0,30.03,SSW,194,2.0,4.0,80,0.00,,,0.04,,2013-07-28 15:53:00,
2013-07-28 12:02:00,86.0,75.0,30.03,WSW,249,0.0,4.0,71,0.00,,,0.04,,2013-07-28 16:02:00,
2013-07-28 12:12:00,86.0,75.0,30.03,WSW,249,0.0,4.0,71,0.00,,,0.04,,2013-07-28 16:12:00,
2013-07-28 12:22:00,89.0,77.0,30.03,SSE,153,1.0,7.0,67,0.00,,,0.04,,2013-07-28 16:22:00,
2013-07-28 12:33:00,89.0,77.0,30.02,SSW,192,1.0,4.0,68,0.00,,,0.04,,2013-07-28 16:33:00,
2013-07-28 12:43:00,89.0,77.0,30.02,SSW,192,1.0,4.0,68,0.00,,,0.04,,2013-07-28 16:43:00,
2013-07-28 12:52:00,89.0,76.0,30.03,SSW,199,2.0,5.0,66,0.00,,,0.04,,2013-07-28 16:52:00,
2013-07-28 13:02:00,89.0,76.0,30.03,SW,220,2.0,5.0,66,0.00,,,0.04,,2013-07-28 17:02:00,
2013-07-28 13:13:00,89.0,76.0,30.03,SW,220,2.0,5.0,66,0.00,,,0.04,,2013-07-28 17:13:00,
2013-07-28 13:23:00,91.0,76.0,30.02,SSW,194,2.0,7.0,62,0.00,,,0.00,,2013-07-28 17:23:00,
2013-07-28 13:32:00,92.0,76.0,30.01,South,177,1.0,5.0,59,0.00,,,0.00,,2013-07-28 17:32:00,
2013-07-28 13:43:00,92.0,76.0,30.01,South,177,1.0,5.0,59,0.00,,,0.00,,2013-07-28 17:43:00,
2013-07-28 13:53:00,92.0,78.0,30.01,WSW,237,1.0,5.0,64,0.00,,,0.00,,2013-07-28 17:53:00,
2013-07-28 14:03:00,92.0,77.0,30.02,SW,234,1.0,6.0,61,0.00,,,0.00,,2013-07-28 18:03:00,
2013-07-28 14:13:00,92.0,77.0,30.02,SW,234,1.0,6.0,61,0.00,,,0.00,,2013-07-28 18:13:00,
2013-07-28 14:22:00,89.0,76.0,30.01,ENE,64,0.0,2.0,66,0.00,,,0.00,,2013-07-28 18:22:00,
2013-07-28 14:33:00,89.0,77.0,30.01,SE,128,2.0,6.0,69,0.00,,,0.00,,2013-07-28 18:33:00,
2013-07-28 14:43:00,89.0,77.0,30.01,SE,128,2.0,6.0,69,0.00,,,0.00,,2013-07-28 18:43:00,
2013-07-28 14:52:00,83.0,74.0,30.01,WNW,284,3.0,12.0,74,0.00,,,0.00,,2013-07-28 18:52:00,
2013-07-28 15:12:00,79.0,75.0,30.01,West,269,2.0,12.0,88,0.03,,,0.03,,2013-07-28 19:12:00,
2013-07-28 15:22:00,77.0,75.0,30.01,West,268,1.0,7.0,94,0.04,,,0.04,,2013-07-28 19:22:00,
2013-07-28 15:33:00,77.0,75.0,30.01,West,268,1.0,7.0,94,0.04,,,0.04,,2013-07-28 19:33:00,
2013-07-28 15:43:00,77.0,75.0,30.01,West,268,1.0,7.0,94,0.04,,,0.04,,2013-07-28 19:43:00,
2013-07-28 15:53:00,76.0,74.0,30.02,WNW,284,2.0,5.0,95,0.06,,,0.06,,2013-07-28 19:53:00,
2013-07-28 16:02:00,76.0,74.0,30.02,SW,236,2.0,5.0,95,0.03,,,0.06,,2013-07-28 20:02:00,
2013-07-28 16:13:00,76.0,74.0,30.02,SW,236,2.0,5.0,95,0.03,,,0.06,,2013-07-28 20:13:00,
2013-07-28 16:23:00,76.0,74.0,30.01,WSW,244,2.0,7.0,94,0.02,,,0.06,,2013-07-28 20:23:00,
2013-07-28 16:33:00,76.0,74.0,30.02,SW,234,1.0,4.0,94,0.02,,,0.06,,2013-07-28 20:33:00,
2013-07-28 16:43:00,76.0,74.0,30.02,SW,234,1.0,4.0,94,0.02,,,0.06,,2013-07-28 20:43:00,
2013-07-28 16:53:00,76.0,74.0,30.03,WSW,243,4.0,8.0,93,0.00,,,0.06,,2013-07-28 20:53:00,
2013-07-28 17:03:00,76.0,74.0,30.03,SSW,209,1.0,6.0,93,0.00,,,0.06,,2013-07-28 21:03:00,
2013-07-28 17:13:00,76.0,74.0,30.03,SSW,209,1.0,6.0,93,0.00,,,0.06,,2013-07-28 21:13:00,
2013-07-28 17:22:00,77.0,75.0,30.03,SW,232,2.0,6.0,93,0.00,,,0.06,,2013-07-28 21:22:00,
2013-07-28 17:33:00,77.0,74.0,30.03,WSW,256,1.0,4.0,90,0.00,,,0.06,,2013-07-28 21:33:00,
2013-07-28 17:44:00,77.0,74.0,30.03,WSW,256,1.0,4.0,90,0.00,,,0.06,,2013-07-28 21:44:00,
2013-07-28 17:52:00,78.0,75.0,30.03,WNW,285,0.0,2.0,92,0.00,,,0.06,,2013-07-28 21:52:00,
2013-07-28 18:02:00,78.0,75.0,30.04,WSW,257,1.0,3.0,92,0.00,,,0.06,,2013-07-28 22:02:00,
2013-07-28 18:12:00,78.0,75.0,30.04,WSW,257,1.0,3.0,92,0.00,,,0.06,,2013-07-28 22:12:00,
2013-07-28 18:22:00,77.0,74.0,30.03,West,277,2.0,8.0,90,0.00,,,0.06,,2013-07-28 22:22:00,
2013-07-28 18:32:00,77.0,74.0,30.03,WSW,250,0.0,2.0,92,0.00,,,0.06,,2013-07-28 22:32:00,
2013-07-28 18:43:00,77.0,74.0,30.03,WSW,250,0.0,2.0,92,0.00,,,0.06,,2013-07-28 22:43:00,
2013-07-28 18:52:00,77.0,75.0,30.04,WSW,250,0.0,2.0,94,0.00,,,0.06,,2013-07-28 22:52:00,
2013-07-28 19:03:00,76.0,74.0,30.04,WNW,288,0.0,3.0,95,0.01,,,0.07,,2013-07-28 23:03:00,
2013-07-28 19:12:00,76.0,74.0,30.04,WNW,288,0.0,3.0,95,0.01,,,0.07,,2013-07-28 23:12:00,
2013-07-28 19:22:00,76.0,75.0,30.03,WNW,288,0.0,1.0,96,0.03,,,0.09,,2013-07-28 23:22:00,
2013-07-28 19:32:00,76.0,75.0,30.03,WNW,288,0.0,0.0,97,0.05,,,0.11,,2013-07-28 23:32:00,
2013-07-28 19:43:00,76.0,75.0,30.03,WNW,288,0.0,0.0,97,0.05,,,0.11,,2013-07-28 23:43:00,
2013-07-28 19:53:00,76.0,75.0,30.02,North,350,0.0,2.0,97,0.05,,,0.11,,2013-07-28 23:53:00,
2013-07-28 20:03:00,76.0,75.0,30.03,NE,50,1.0,3.0,97,0.04,,,0.11,,2013-07-29 00:03:00,
2013-07-28 20:22:00,76.0,75.0,30.03,NE,50,0.0,0.0,98,0.02,,,0.11,,2013-07-29 00:22:00,
2013-07-28 20:32:00,76.0,75.0,30.04,SE,132,0.0,3.0,98,0.00,,,0.11,,2013-07-29 00:32:00,
2013-07-28 20:43:00,76.0,75.0,30.04,SE,132,0.0,3.0,98,0.00,,,0.11,,2013-07-29 00:43:00,
2013-07-28 20:52:00,75.0,74.0,30.04,SE,125,0.0,0.0,98,0.00,,,0.11,,2013-07-29 00:52:00,
2013-07-28 21:02:00,75.0,74.0,30.05,SE,125,0.0,0.0,98,0.00,,,0.11,,2013-07-29 01:02:00,
2013-07-28 21:14:00,75.0,74.0,30.05,SE,125,0.0,0.0,98,0.00,,,0.11,,2013-07-29 01:14:00,
2013-07-28 21:29:00,75.0,74.0,30.05,SE,125,0.0,0.0,98,0.00,,,0.11,,2013-07-29 01:29:00,
2013-07-28 22:01:00,75.0,74.0,30.06,SE,125,1.0,3.0,98,0.00,,,0.11,,2013-07-29 02:01:00,
2013-07-28 22:14:00,74.0,73.0,30.06,SE,133,0.0,2.0,98,0.00,,,0.11,,2013-07-29 02:14:00,
2013-07-28 22:27:00,74.0,73.0,30.06,SE,133,0.0,2.0,98,0.00,,,0.11,,2013-07-29 02:27:00,
2013-07-28 22:59:00,74.0,73.0,30.07,SE,136,1.0,4.0,98,0.00,,,0.11,,2013-07-29 02:59:00,
2013-07-28 23:04:00,74.0,74.0,30.07,SE,131,0.0,2.0,99,0.00,,,0.11,,2013-07-29 03:04:00,
2013-07-28 23:17:00,74.0,74.0,30.07,SE,131,0.0,2.0,99,0.00,,,0.11,,2013-07-29 03:17:00,
2013-07-28 23:25:00,74.0,73.0,30.08,SE,136,1.0,3.0,98,0.00,,,0.11,,2013-07-29 03:25:00,
2013-07-28 23:48:00,74.0,74.0,30.08,SE,130,0.0,2.0,99,0.00,,,0.11,,2013-07-29 03:48:00,
2013-07-28 23:58:00,73.0,73.0,30.08,SE,130,0.0,1.0,99,0.00,,,0.11,,2013-07-29 03:58:00,